Mid Labrador Coast: Past 24 Hour Conditions

 

Natashquan Airport

01:00 AM EDT 22 August 2014
This table is a summary of hourly weather conditions for the past 24 hours.
Date / Time
(EDT)
Wind(knots) Conditions Visibility(km) Pressure(kPa) Air tempC) Relative humidity(%) Dew pointC)
22 August 2014
1:00 N 4 Cloudy 16 102.2 15 81 11
0:00 N 4 Cloudy 16 102.2 15 80 11
21 August 2014
23:00 NNE 7 Clear 16 102.2 14 82 11
22:00 N 7 Mostly Cloudy 16 102.2 16 77 12
21:00 N 7 Mainly Clear 16 102.2 17 75 12
20:00 N 6 Mostly Cloudy 16 102.1 18 70 12
19:00 N 7 Cloudy 16 102.1 19 63 12
18:00 NNW 5 Cloudy 16 102.1 20 62 13
17:00 N 9 Cloudy 16 102.0 20 58 12
16:00 NNE 13 Cloudy 16 102.0 21 58 12
15:00 N 13 gust 18 Cloudy 16 102.0 22 53 12
14:00 NNE 12 gust 18 Cloudy 16 102.0 22 53 12
13:00 N 11 gust 17 Cloudy 16 102.0 21 58 12
12:00 N 13 gust 20 Cloudy 16 102.0 21 58 12
11:00 NNE 14 gust 21 Cloudy 16 102.0 21 58 13
10:00 NNE 12 gust 20 Mostly Cloudy 16 102.0 21 60 13
9:00 NNE 14 gust 22 Sunny 16 101.9 20 65 13
8:00 N 12 gust 19 Mainly Sunny 16 102.0 19 71 13
7:00 N 10 gust 15 Mostly Cloudy 16 102.0 16 81 13
6:00 NNW 9 Partly Cloudy 16 101.9 15 86 13
5:00 N 9 Cloudy 16 101.8 15 86 13
4:00 NNW 6 Mostly Cloudy 16 101.8 15 87 13
3:00 NNW 4 Clear 16 101.8 15 87 12
2:00 NNE 6 Clear 16 101.7 15 87 13
1:00 N 9 Clear 16 101.7 15 85 13
 
Map of Atlantic - Newfoundland marine weather areas Southwestern Grand Banks - 44138 Banquereau - 44139 Tail of the Bank - 44140 Nickerson Bank - 44251 Northeast Burgeo Bank - 44255 Blanc-Sablon Airport Cap Whittle Chevery Natashquan Airport Heath Point Miscou Island Grand Étang Ingonish Beach North Mountain St.Paul Island J.A. Douglas McCurdy Sydney Airport Charlottetown Airport East Point North Cape Argentia Bonavista Burgeo Cape Race Corner Brook Daniel's Harbour Englee Ferolle Point La Scie Port aux Basques Rocky Harbour Sagona Island St. Anthony Airport St. John's Int'l Airport St. Lawrence Stephenville Airport Twillingate Winterland Wreckhouse Cartwright Airport Mary's Harbour Grates Cove Pool's Island Marticot Island Long Pond Îles de la Madeleine Airport
Legend: buoyBuoy land stationLand Station